This demonstration page uses our WeatherBlox Daily Observations layout. Learn more.

Left ArrowRight Arrow

Hourly Observations for September 19, 2015

Temp ( °F °C ) Dew Point ( °F °C ) Humidity (%) Winds ( mph kmh ) Pressure ( in mb ) Visibility ( mi km ) Precip ( " mm )
12:53 am 00:53 Clear 69 20.6 63 17.2 81 81 Calm 29.9 1013 10 16.0934 0 0
1:53 am 01:53 Clear 69 20.6 64 17.8 84 84 E 3 6 29.88 1012 10 16.0934 0 0
2:53 am 02:53 Clear 66 18.9 64 17.8 93 93 Calm 29.88 1012 10 16.0934 0 0
3:53 am 03:53 Clear 65 18.3 63 17.2 93 93 Calm 29.85 1011 10 16.0934 0 0
4:53 am 04:53 Clear 65 18.3 63 17.2 93 93 ESE 3 6 29.85 1011 10 16.0934 0 0
5:53 am 05:53 Clear 66 18.9 63 17.2 90 90 ESE 5 7 29.83 1010 10 16.0934 0 0
6:53 am 06:53 Clear 63 17.2 61 16.1 93 93 Calm 29.86 1011 10 16.0934 0 0
7:53 am 07:53 Mostly Sunny 63 17.2 62 16.7 97 97 Calm 29.86 1011 8 12.87472 0 0
8:53 am 08:53 Mostly Sunny 72 22.2 63 17.2 73 73 VRB 3 6 29.86 1011 10 16.0934 0 0
9:53 am 09:53 Sunny 73 22.8 63 17.2 71 71 VRB 6 9 29.88 1012 10 16.0934 0 0
10:53 am 10:53 Sunny 74 23.3 64 17.8 71 71 SW 6 9 29.88 1012 10 16.0934 0 0
11:48 am 11:48 Mostly Cloudy 75 24 64 18 69 69 VRB 6 9 29.91 1013 10 16.0934 0 0
11:53 am 11:53 Mostly Cloudy 75 23.9 66 18.9 74 74 VRB 6 9 29.88 1012 10 16.0934 0 0
12:53 pm 12:53 Cloudy 74 23.3 67 19.4 79 79 W 9 15 29.9 1012 9 14.48406 0 0
1:48 pm 13:48 Cloudy with Light Rain 68 20 66 19 94 94 NW 14 22 29.94 1014 5 8.0467 0 0.0254
1:53 pm 13:53 Cloudy with Light Rain 68 20 66 18.9 93 93 WNW 12 19 29.93 1014 5 8.0467 0 0.0254
2:53 pm 14:53 Cloudy 71 21.7 64 17.8 79 79 NW 13 20 29.94 1014 10 16.0934 0 0.0254
3:53 pm 15:53 Cloudy 69 20.6 61 16.1 76 76 NW 12 19 29.96 1014 10 16.0934 0 0
4:06 pm 16:06 Cloudy 70 21.1 61 16.1 73 73 WNW 8 13 29.97 1015 10 16.0934 0 0
4:53 pm 16:53 Mostly Cloudy 72 22.2 59 15 64 64 NW 9 15 29.95 1014 10 16.0934 0 0
5:53 pm 17:53 Sunny 75 23.9 55 12.8 50 50 WNW 13 20 29.95 1014 10 16.0934 0 0
6:53 pm 18:53 Mostly Sunny 72 22.2 55 12.8 55 55 NNW 9 15 29.97 1015 10 16.0934 0 0
7:53 pm 19:53 Clear 68 20 53 11.7 59 59 NNW 7 11 29.99 1016 10 16.0934 0 0
8:53 pm 20:53 Clear 64 17.8 53 11.7 68 68 NNW 5 7 30.01 1016 10 16.0934 0 0
9:53 pm 21:53 Clear 63 17.2 53 11.7 70 70 N 5 7 30.04 1017 10 16.0934 0 0
10:53 pm 22:53 Clear 61 16.1 52 11.1 72 72 N 6 9 30.06 1018 10 16.0934 0 0
11:53 pm 23:53 Clear 60 15.6 51 10.6 72 72 N 7 11 30.07 1018 10 16.0934 0 0

Powered by AerisWeather